Startpagina
METAR-TAF:

METAR-TAF

Vliegvelden :

Black_Hills

Spearfish, South Dakota, Verenigde Staten

breedte: 44-29N, lengte: 103-47W, hoogte: 1188 m

Actueel weer

Dit bericht is 25 minuten geleden gemaakt, om 16:15 UTC
Wind 3 kt uit het westen
Temperatuur 24°C
Vochtigheid 47%
Druk 1012 hPa
Zicht: 16.1 km
Onbewolkt

METAR: KSPF 251615Z AUTO 26003KT 10SM CLR 24/12 A2988 RMK AO2

Tijdstip: 10:40 (16:40 UTC)


TAF: ontbreekt

Waarnemingen en weersverwachtingen van meer dan 4000 vliegvelden (METAR en TAF).

De beschikbare stations zijn de gele en rode punten op de kaart.

Ga met uw muis naar het station om de naam te zien.

Klik dan om waarnemingen en weersverwachtingen te zien.

kaart wijzigen: klik op de groene knoppen met een zwart kruis om in te zoomen, op de groene knop met een streepje om uit te zoomen of op de groene pijlen voor aangrenzende kaarten.


METAR-TAF: